Bradshaw AFB, HI

5:28 PM HST on November 11, 2019 (GMT -1000)
Bradshaw Army Air Field

Weather History for PHSF - September, 2019

Change the Weather History Date:

Friday, September 13, 2019

  Actual Average Record
Temperature  
Mean Temperature 60 °F -  
Max Temperature 73 °F 69 °F 75 °F (2005)
Min Temperature 48 °F 49 °F 39 °F (2001)
Degree Days  
Heating Degree Days 4    
Growing Degree Days 10 (Base 50)    
Moisture  
Dew Point 52 °F    
Average Humidity 72    
Maximum Humidity 89    
Minimum Humidity 42    
Precipitation  
Precipitation 0.00 in - - ()
Sea Level Pressure  
Sea Level Pressure 29.94 in    
Wind  
Wind Speed 5 mph (West)    
Max Wind Speed 17 mph    
Max Gust Speed 24 mph    
Visibility 10 miles    
Events      
Averages and records for this station are not official NWS values.
T = Trace of Precipitation, MM = Missing Value Source: NWS Daily Summary

Daily Weather History Graph

Daily Weather History Graph

Search for Another Location

Airport or City:

Astronomy

Sep. 13, 2019 Rise Set
Actual Time 6:09 AM HST 6:26 PM HST
Civil Twilight 5:47 AM HST 6:48 PM HST
Nautical Twilight 5:21 AM HST 7:14 PM HST
Astronomical Twilight 4:55 AM HST 7:40 PM HST
Moon 6:37 PM HST (9/13) 5:49 AM HST (9/13)
Length of Visible Light 13h 01m
Length of Day
12h 17m
Full, 100% of the Moon is Illuminated
Sep 13
Full
Sep 13
Full
Sep 21
Last Quarter
Sep 28
New
Oct 5
First Quarter

Hourly Weather History & Observations

Time (HST) Temp. Dew Point Humidity Pressure Visibility Wind Dir Wind Speed Gust Speed Precip Events Conditions
12:56 AM 53.4 °F 43.5 °F 69% 29.92 in 10.0 mi Calm Calm - N/A   Partly Cloudy
1:56 AM 51.1 °F 41.0 °F 68% 29.90 in 10.0 mi SE 4.6 mph - N/A   Clear
2:56 AM 50.2 °F 41.5 °F 72% 29.91 in 10.0 mi ESE 4.6 mph - N/A   Clear
3:56 AM 50.4 °F 40.1 °F 68% 29.91 in 10.0 mi SE 3.5 mph - N/A   Clear
4:56 AM 48.9 °F 40.6 °F 73% 29.96 in 10.0 mi SE 3.5 mph - N/A   Partly Cloudy
5:56 AM 50.4 °F 42.6 °F 75% 29.97 in 10.0 mi Calm Calm - N/A   Clear
6:56 AM 52.9 °F 45.3 °F 75% 29.98 in 10.0 mi Calm Calm - N/A   Clear
7:56 AM 65.5 °F 48.2 °F 54% 29.95 in 10.0 mi ESE 3.5 mph - N/A   Clear
8:56 AM 69.1 °F 46.9 °F 45% 29.96 in 10.0 mi West 3.5 mph - N/A   Partly Cloudy
9:56 AM 70.7 °F 49.5 °F 47% 29.95 in 10.0 mi West 4.6 mph - N/A   Clear
10:56 AM 73.2 °F 49.6 °F 43% 29.94 in 10.0 mi West 4.6 mph - N/A   Clear
11:56 AM 72.9 °F 48.6 °F 42% 29.92 in 10.0 mi WSW 6.9 mph - N/A   Clear
1:12 PM 73.4 °F 57.2 °F 57% 29.90 in 10.0 mi NNW 11.5 mph - N/A   Partly Cloudy
1:21 PM 73.4 °F 57.2 °F 57% 29.90 in 10.0 mi WNW 16.1 mph 23.0 mph N/A   Scattered Clouds
1:33 PM 71.6 °F 57.2 °F 60% 29.91 in 10.0 mi NNW 16.1 mph 24.2 mph N/A   Scattered Clouds
1:58 PM 70.3 °F 56.5 °F 61% 29.91 in 10.0 mi NNW 17.3 mph 23.0 mph N/A   Overcast
2:42 PM 69.8 °F 55.4 °F 60% 29.91 in 10.0 mi North 12.7 mph - N/A   Mostly Cloudy
2:58 PM 70.2 °F 57.4 °F 64% 29.90 in 10.0 mi NNW 17.3 mph 21.9 mph N/A   Mostly Cloudy
3:58 PM 68.2 °F 55.6 °F 64% 29.90 in 10.0 mi NW 17.3 mph - N/A   Mostly Cloudy
4:58 PM 64.8 °F 57.4 °F 77% 29.94 in 9.0 mi NNW 13.8 mph - N/A   Mostly Cloudy
5:58 PM 61.7 °F 57.6 °F 86% 29.96 in 10.0 mi NW 11.5 mph - N/A   Overcast
6:23 PM 60.8 °F 57.2 °F 88% 29.98 in 10.0 mi North 3.5 mph - N/A   Overcast
6:33 PM 60.8 °F 57.2 °F 88% 29.99 in 9.0 mi Calm Calm - N/A   Overcast
6:38 PM 60.8 °F 57.2 °F 88% 29.99 in 10.0 mi Calm Calm - N/A   Overcast
6:43 PM 60.8 °F 57.2 °F 88% 29.99 in 10.0 mi Calm Calm - N/A   Overcast
6:50 PM 60.8 °F 57.2 °F 88% 29.98 in 9.0 mi Calm Calm - N/A   Overcast
6:55 PM 60.8 °F 57.2 °F 88% 29.98 in 9.0 mi South 4.6 mph - N/A   Overcast
6:58 PM 60.3 °F 57.0 °F 89% 29.98 in 10.0 mi SSE 4.6 mph - N/A   Overcast
7:04 PM 60.8 °F 55.4 °F 82% 29.97 in 10.0 mi SSE 5.8 mph - N/A   Overcast
7:14 PM 59.0 °F 55.4 °F 88% 29.97 in 10.0 mi South 5.8 mph - N/A   Overcast
7:58 PM 60.8 °F 55.4 °F 82% 29.95 in 10.0 mi SE 8.1 mph - N/A   Overcast
8:58 PM 59.5 °F 53.4 °F 80% 29.95 in 10.0 mi SSE 4.6 mph - N/A   Scattered Clouds
9:58 PM 60.8 °F 53.6 °F 77% 29.95 in 10.0 mi ESE 4.6 mph - N/A   Overcast
10:58 PM 59.5 °F 52.2 °F 77% 29.94 in 10.0 mi North 6.9 mph - N/A   Mostly Cloudy
11:58 PM 57.4 °F 54.0 °F 88% 29.94 in 10.0 mi Calm Calm - N/A   Clear